• In Romania
  • List of Countries
  • For 7 days
  • Water Temperature
  • Satellite Maps
  • Weather Map
  • Weather Widgets
  • user-avatar
    Login

    Hourly Weather Jablanac

    Today, 23 October, Monday

    Time Temperature Precipitation Wind Pressure Humidity
    00:00 +8°C° 0.5 mm 9 mps 751 mmHg 87%
    01:00 +8°C° 0.5 mm 10 mps 752 mmHg 86%
    02:00 +8°C° 0.2 mm 10 mps 751 mmHg 86%
    03:00 +8°C° 0.2 mm 10 mps 751 mmHg 85%
    04:00 +8°C° 0.2 mm 10 mps 751 mmHg 84%
    05:00 +8°C° 0.2 mm 9 mps 752 mmHg 84%
    06:00 +8°C° 0.2 mm 9 mps 752 mmHg 84%
    07:00 +8°C° 0.2 mm 9 mps 753 mmHg 84%
    08:00 +10°C° 0 mm 8 mps 753 mmHg 80%
    09:00 +10°C° 0 mm 7 mps 753 mmHg 76%
    10:00 +11°C° 0 mm 6 mps 753 mmHg 71%
    11:00 +13°C° 0 mm 6 mps 753 mmHg 67%
    12:00 +14°C° 0 mm 6 mps 753 mmHg 62%
    13:00 +14°C° 0 mm 6 mps 753 mmHg 58%
    14:00 +14°C° 0.1 mm 6 mps 754 mmHg 61%
    15:00 +14°C° 0.1 mm 5 mps 754 mmHg 64%
    16:00 +13°C° 0.1 mm 5 mps 754 mmHg 68%
    17:00 +12°C° 0 mm 5 mps 754 mmHg 71%
    18:00 +10°C° 0 mm 5 mps 755 mmHg 75%
    19:00 +9°C° 0 mm 5 mps 755 mmHg 79%
    20:00 +9°C° 0 mm 5 mps 756 mmHg 79%
    21:00 +9°C° 0 mm 5 mps 756 mmHg 79%
    22:00 +8°C° 0 mm 5 mps 756 mmHg 79%
    23:00 +8°C° 0 mm 6 mps 756 mmHg 77%

    Tomorrow, 24 October, Tuesday

    Time Temperature Precipitation Wind Pressure Humidity
    00:00 +8°C° 0 mm 6 mps 757 mmHg 76%
    01:00 +8°C° 0 mm 6 mps 757 mmHg 74%
    02:00 +8°C° 0 mm 6 mps 757 mmHg 73%
    03:00 +8°C° 0 mm 6 mps 757 mmHg 72%
    04:00 +8°C° 0 mm 7 mps 757 mmHg 72%
    05:00 +8°C° 0 mm 7 mps 757 mmHg 72%
    06:00 +7°C° 0 mm 8 mps 758 mmHg 73%
    07:00 +7°C° 0 mm 9 mps 758 mmHg 73%
    08:00 +10°C° 0 mm 9 mps 758 mmHg 68%
    09:00 +12°C° 0 mm 10 mps 758 mmHg 63%
    10:00 +13°C° 0 mm 10 mps 759 mmHg 58%
    11:00 +14°C° 0 mm 10 mps 759 mmHg 56%
    12:00 +16°C° 0 mm 9 mps 758 mmHg 55%
    13:00 +16°C° 0 mm 9 mps 758 mmHg 53%
    14:00 +16°C° 0 mm 8 mps 758 mmHg 56%
    15:00 +15°C° 0 mm 8 mps 758 mmHg 59%
    16:00 +15°C° 0 mm 8 mps 759 mmHg 63%
    17:00 +13°C° 0 mm 8 mps 759 mmHg 66%
    18:00 +12°C° 0 mm 8 mps 760 mmHg 70%
    19:00 +11°C° 0 mm 8 mps 760 mmHg 73%
    20:00 +11°C° 0 mm 8 mps 761 mmHg 75%
    21:00 +10°C° 0 mm 8 mps 761 mmHg 77%
    22:00 +10°C° 0 mm 8 mps 762 mmHg 79%
    23:00 +10°C° 0 mm 7 mps 762 mmHg 81%

    Day after tomorrow, 25 October, Wednesday

    Time Temperature Precipitation Wind Pressure Humidity
    00:00 +9°C° 0 mm 7 mps 762 mmHg 83%
    01:00 +9°C° 0 mm 7 mps 762 mmHg 84%
    02:00 +9°C° 0 mm 6 mps 762 mmHg 85%
    03:00 +9°C° 0 mm 6 mps 763 mmHg 86%
    04:00 +9°C° 0 mm 5 mps 763 mmHg 86%
    05:00 +8°C° 0 mm 5 mps 763 mmHg 87%
    06:00 +8°C° 0 mm 5 mps 763 mmHg 88%
    07:00 +8°C° 0 mm 5 mps 763 mmHg 88%
    08:00 +10°C° 0 mm 5 mps 764 mmHg 80%
    09:00 +12°C° 0 mm 5 mps 764 mmHg 73%
    10:00 +14°C° 0 mm 5 mps 764 mmHg 65%
    11:00 +15°C° 0 mm 5 mps 764 mmHg 62%
    12:00 +16°C° 0 mm 5 mps 764 mmHg 59%
    13:00 +17°C° 0 mm 5 mps 763 mmHg 56%
    14:00 +16°C° 0 mm 5 mps 763 mmHg 60%
    15:00 +17°C° 0 mm 4 mps 763 mmHg 64%
    16:00 +15°C° 0 mm 4 mps 763 mmHg 67%
    17:00 +14°C° 0 mm 4 mps 763 mmHg 73%
    18:00 +13°C° 0 mm 4 mps 764 mmHg 78%
    19:00 +11°C° 0 mm 4 mps 764 mmHg 83%
    20:00 +11°C° 0 mm 4 mps 764 mmHg 82%
    21:00 +11°C° 0 mm 4 mps 764 mmHg 82%
    22:00 +11°C° 0 mm 4 mps 765 mmHg 81%
    23:00 +11°C° 0 mm 3 mps 765 mmHg 78%

    26 October, Thursday

    Time Temperature Precipitation Wind Pressure Humidity
    00:00 +11°C° 0 mm 3 mps 765 mmHg 76%
    01:00 +11°C° 0 mm 3 mps 765 mmHg 74%
    02:00 +12°C° 0 mm 2 mps 765 mmHg 73%
    03:00 +12°C° 0 mm 2 mps 765 mmHg 72%
    04:00 +12°C° 0 mm 2 mps 764 mmHg 71%
    05:00 +12°C° 0 mm 2 mps 765 mmHg 70%
    06:00 +12°C° 0 mm 2 mps 765 mmHg 69%
    07:00 +12°C° 0 mm 2 mps 765 mmHg 68%
    08:00 +15°C° 0 mm 1 mps 765 mmHg 62%
    09:00 +18°C° 0 mm 1 mps 765 mmHg 55%
    10:00 +21°C° 0 mm 1 mps 765 mmHg 49%
    11:00 +22°C° 0 mm 1 mps 764 mmHg 48%
    12:00 +23°C° 0 mm 1 mps 764 mmHg 46%
    13:00 +24°C° 0 mm 1 mps 764 mmHg 45%
    14:00 +23°C° 0 mm 1 mps 763 mmHg 52%
    15:00 +22°C° 0 mm 1 mps 763 mmHg 58%
    16:00 +21°C° 0 mm 1 mps 763 mmHg 65%
    17:00 +19°C° 0 mm 1 mps 763 mmHg 70%
    18:00 +18°C° 0 mm 1 mps 763 mmHg 76%
    19:00 +14°C° 0 mm 0 mps 763 mmHg 81%
    20:00 +14°C° 0 mm 0 mps 763 mmHg 81%
    21:00 +14°C° 0 mm 0 mps 763 mmHg 81%
    22:00 +14°C° 0 mm 0 mps 763 mmHg 81%
    23:00 +13°C° 0 mm 0 mps 762 mmHg 80%

    27 October, Friday

    Time Temperature Precipitation Wind Pressure Humidity
    00:00 +13°C° 0 mm 0 mps 762 mmHg 80%
    01:00 +14°C° 0 mm 1 mps 762 mmHg 80%
    02:00 +14°C° 0 mm 1 mps 761 mmHg 81%
    03:00 +13°C° 0 mm 0 mps 761 mmHg 82%
    04:00 +13°C° 0 mm 0 mps 760 mmHg 83%
    05:00 +14°C° 0 mm 1 mps 760 mmHg 83%
    06:00 +13°C° 0 mm 1 mps 760 mmHg 84%
    07:00 +13°C° 0 mm 1 mps 760 mmHg 84%
    08:00 +16°C° 0 mm 1 mps 759 mmHg 76%
    09:00 +18°C° 0 mm 2 mps 759 mmHg 67%
    10:00 +20°C° 0 mm 2 mps 759 mmHg 59%
    11:00 +20°C° 0 mm 2 mps 758 mmHg 58%
    12:00 +21°C° 0 mm 2 mps 757 mmHg 57%
    13:00 +21°C° 0 mm 3 mps 757 mmHg 56%
    14:00 +20°C° 0 mm 2 mps 756 mmHg 62%
    15:00 +19°C° 0 mm 2 mps 755 mmHg 68%
    16:00 +18°C° 0 mm 2 mps 755 mmHg 74%
    17:00 +17°C° 0 mm 2 mps 754 mmHg 79%
    18:00 +16°C° 0 mm 2 mps 754 mmHg 84%
    19:00 +15°C° 0 mm 2 mps 754 mmHg 89%
    20:00 +15°C° 0 mm 2 mps 754 mmHg 89%
    21:00 +15°C° 0 mm 2 mps 754 mmHg 89%
    22:00 +15°C° 0 mm 2 mps 754 mmHg 89%
    23:00 +15°C° 0 mm 2 mps 754 mmHg 88%

    28 October, Saturday

    Time Temperature Precipitation Wind Pressure Humidity
    00:00 +15°C° 0 mm 2 mps 754 mmHg 87%
    01:00 +15°C° 0 mm 2 mps 754 mmHg 86%
    02:00 +14°C° 0.1 mm 3 mps 753 mmHg 87%
    03:00 +13°C° 0.1 mm 3 mps 753 mmHg 88%
    04:00 +13°C° 0.1 mm 4 mps 753 mmHg 88%
    05:00 +13°C° 0 mm 4 mps 753 mmHg 87%
    06:00 +12°C° 0 mm 4 mps 753 mmHg 86%
    07:00 +10°C° 0 mm 5 mps 753 mmHg 84%
    08:00 +12°C° 0 mm 5 mps 752 mmHg 78%
    09:00 +12°C° 0 mm 4 mps 752 mmHg 71%
    10:00 +13°C° 0 mm 4 mps 752 mmHg 64%
    11:00 +12°C° 0.5 mm 5 mps 752 mmHg 69%
    12:00 +12°C° 0.5 mm 5 mps 751 mmHg 74%
    13:00 +10°C° 0.5 mm 5 mps 751 mmHg 78%
    14:00 +10°C° 1 mm 5 mps 751 mmHg 79%
    15:00 +10°C° 1 mm 5 mps 751 mmHg 80%
    16:00 +10°C° 1 mm 5 mps 751 mmHg 80%
    17:00 +10°C° 0 mm 4 mps 751 mmHg 82%
    18:00 +9°C° 0 mm 3 mps 752 mmHg 83%
    19:00 +9°C° 0 mm 2 mps 752 mmHg 84%
    20:00 +9°C° 0 mm 2 mps 752 mmHg 83%
    21:00 +9°C° 0 mm 2 mps 752 mmHg 82%
    22:00 +9°C° 0 mm 2 mps 752 mmHg 81%
    23:00 +9°C° 0.2 mm 2 mps 753 mmHg 82%

    29 October, Sunday

    Time Temperature Precipitation Wind Pressure Humidity
    00:00 +9°C° 0.2 mm 3 mps 753 mmHg 83%
    01:00 +10°C° 0.2 mm 3 mps 753 mmHg 84%
    02:00 +10°C° 0 mm 4 mps 753 mmHg 82%
    03:00 +8°C° 0 mm 5 mps 753 mmHg 81%
    04:00 +8°C° 0 mm 5 mps 754 mmHg 79%
    05:00 +8°C° 0 mm 6 mps 754 mmHg 78%
    06:00 +8°C° 0 mm 6 mps 755 mmHg 78%
    07:00 +6°C° 0 mm 7 mps 755 mmHg 77%
    08:00 +9°C° 0 mm 7 mps 756 mmHg 71%
    09:00 +10°C° 0 mm 8 mps 756 mmHg 66%
    10:00 +12°C° 0 mm 8 mps 757 mmHg 60%
    11:00 +12°C° 0 mm 7 mps 757 mmHg 57%
    12:00 +14°C° 0 mm 7 mps 757 mmHg 55%
    13:00 +14°C° 0 mm 6 mps 757 mmHg 52%
    14:00 +14°C° 0 mm 5 mps 757 mmHg 55%
    15:00 +13°C° 0 mm 4 mps 757 mmHg 58%
    16:00 +14°C° 0 mm 2 mps 757 mmHg 61%
    17:00 +13°C° 0 mm 2 mps 757 mmHg 65%
    18:00 +10°C° 0 mm 2 mps 757 mmHg 69%
    19:00 +10°C° 0 mm 1 mps 758 mmHg 72%
    20:00 +10°C° 0 mm 1 mps 758 mmHg 73%
    21:00 +10°C° 0 mm 1 mps 758 mmHg 73%
    22:00 +10°C° 0 mm 1 mps 758 mmHg 74%
    23:00 +10°C° 0 mm 1 mps 758 mmHg 73%
    Show more